Time,TemperatureF,DewpointF,PressureIn,WindDirection,WindDirectionDegrees,WindSpeedMPH,WindSpeedGustMPH,Humidity,HourlyPrecipIn,Conditions,Clouds,dailyrainin,SoftwareType,DateUTC
2013-03-04 00:01:00,25.0,18.0,30.09,NNW,329,0.0,0.0,75,0.00,,,0.00,,2013-03-04 05:01:00,
2013-03-04 00:11:00,25.0,18.0,30.09,NNW,329,0.0,0.0,75,0.00,,,0.00,,2013-03-04 05:11:00,
2013-03-04 00:22:00,25.0,18.0,30.09,NNW,329,0.0,0.0,75,0.00,,,0.00,,2013-03-04 05:22:00,
2013-03-04 00:32:00,25.0,18.0,30.09,NNW,329,0.0,0.0,74,0.00,,,0.00,,2013-03-04 05:32:00,
2013-03-04 00:42:00,25.0,18.0,30.09,NNW,329,0.0,0.0,74,0.00,,,0.00,,2013-03-04 05:42:00,
2013-03-04 00:52:00,24.0,18.0,30.09,NNW,329,0.0,0.0,76,0.00,,,0.00,,2013-03-04 05:52:00,
2013-03-04 01:02:00,24.0,18.0,30.09,NNW,329,0.0,0.0,76,0.00,,,0.00,,2013-03-04 06:02:00,
2013-03-04 01:11:00,24.0,18.0,30.09,NNW,329,0.0,0.0,76,0.00,,,0.00,,2013-03-04 06:11:00,
2013-03-04 01:22:00,24.0,18.0,30.09,NNW,329,0.0,1.0,77,0.00,,,0.00,,2013-03-04 06:22:00,
2013-03-04 01:32:00,23.0,17.0,30.10,NNW,329,0.0,0.0,78,0.00,,,0.00,,2013-03-04 06:32:00,
2013-03-04 01:42:00,23.0,17.0,30.10,NNW,329,0.0,0.0,78,0.00,,,0.00,,2013-03-04 06:42:00,
2013-03-04 01:52:00,23.0,17.0,30.10,NNW,329,0.0,0.0,79,0.00,,,0.00,,2013-03-04 06:52:00,
2013-03-04 02:02:00,23.0,18.0,30.11,NNW,329,0.0,0.0,80,0.00,,,0.00,,2013-03-04 07:02:00,
2013-03-04 02:11:00,23.0,18.0,30.11,NNW,329,0.0,0.0,80,0.00,,,0.00,,2013-03-04 07:11:00,
2013-03-04 02:22:00,23.0,18.0,30.11,NNW,329,0.0,1.0,80,0.00,,,0.00,,2013-03-04 07:22:00,
2013-03-04 02:32:00,23.0,18.0,30.11,NNW,329,0.0,1.0,81,0.00,,,0.00,,2013-03-04 07:32:00,
2013-03-04 02:42:00,23.0,18.0,30.11,NNW,329,0.0,1.0,81,0.00,,,0.00,,2013-03-04 07:42:00,
2013-03-04 02:52:00,22.0,17.0,30.11,NNW,329,0.0,0.0,82,0.00,,,0.00,,2013-03-04 07:52:00,
2013-03-04 03:02:00,22.0,17.0,30.11,NNW,329,0.0,0.0,82,0.00,,,0.00,,2013-03-04 08:02:00,
2013-03-04 03:12:00,22.0,17.0,30.11,NNW,329,0.0,0.0,82,0.00,,,0.00,,2013-03-04 08:12:00,
2013-03-04 03:22:00,22.0,18.0,30.11,NNW,329,0.0,0.0,83,0.00,,,0.00,,2013-03-04 08:22:00,
2013-03-04 03:32:00,22.0,18.0,30.11,NNW,329,0.0,0.0,83,0.00,,,0.00,,2013-03-04 08:32:00,
2013-03-04 03:42:00,22.0,18.0,30.11,NNW,329,0.0,0.0,83,0.00,,,0.00,,2013-03-04 08:42:00,
2013-03-04 03:52:00,22.0,18.0,30.11,NNW,329,0.0,0.0,83,0.00,,,0.00,,2013-03-04 08:52:00,
2013-03-04 04:02:00,22.0,18.0,30.12,NNW,329,0.0,0.0,83,0.00,,,0.00,,2013-03-04 09:02:00,
2013-03-04 04:11:00,22.0,18.0,30.12,NNW,329,0.0,0.0,83,0.00,,,0.00,,2013-03-04 09:11:00,
2013-03-04 04:22:00,22.0,18.0,30.12,NNW,329,0.0,0.0,84,0.00,,,0.00,,2013-03-04 09:22:00,
2013-03-04 04:32:00,22.0,18.0,30.14,NNW,329,0.0,2.0,84,0.00,,,0.00,,2013-03-04 09:32:00,
2013-03-04 04:42:00,22.0,18.0,30.14,NNW,329,0.0,2.0,84,0.00,,,0.00,,2013-03-04 09:42:00,
2013-03-04 04:52:00,22.0,18.0,30.14,NNW,329,0.0,1.0,85,0.00,,,0.00,,2013-03-04 09:52:00,
2013-03-04 05:01:00,21.0,17.0,30.14,NNW,329,0.0,0.0,85,0.00,,,0.00,,2013-03-04 10:01:00,
2013-03-04 05:12:00,21.0,17.0,30.14,NNW,329,0.0,0.0,85,0.00,,,0.00,,2013-03-04 10:12:00,
2013-03-04 05:22:00,21.0,17.0,30.15,NNW,329,0.0,0.0,85,0.00,,,0.00,,2013-03-04 10:22:00,
2013-03-04 05:32:00,21.0,17.0,30.15,NNW,329,0.0,0.0,85,0.00,,,0.00,,2013-03-04 10:32:00,
2013-03-04 05:42:00,21.0,17.0,30.15,NNW,329,0.0,0.0,85,0.00,,,0.00,,2013-03-04 10:42:00,
2013-03-04 05:52:00,21.0,17.0,30.15,NNW,329,0.0,0.0,85,0.00,,,0.00,,2013-03-04 10:52:00,
2013-03-04 06:02:00,21.0,17.0,30.15,NNW,329,0.0,1.0,86,0.00,,,0.00,,2013-03-04 11:02:00,
2013-03-04 06:11:00,21.0,17.0,30.15,NNW,329,0.0,1.0,86,0.00,,,0.00,,2013-03-04 11:11:00,
2013-03-04 06:22:00,20.0,17.0,30.16,NNW,329,0.0,0.0,87,0.00,,,0.00,,2013-03-04 11:22:00,
2013-03-04 06:32:00,20.0,17.0,30.17,NNW,329,0.0,3.0,88,0.00,,,0.00,,2013-03-04 11:32:00,
2013-03-04 06:42:00,20.0,17.0,30.17,NNW,329,0.0,3.0,88,0.00,,,0.00,,2013-03-04 11:42:00,
2013-03-04 06:52:00,19.0,16.0,30.17,NNW,329,0.0,2.0,89,0.00,,,0.00,,2013-03-04 11:52:00,
2013-03-04 07:02:00,20.0,17.0,30.16,NNW,329,0.0,1.0,89,0.00,,,0.00,,2013-03-04 12:02:00,
2013-03-04 07:11:00,20.0,17.0,30.16,NNW,329,0.0,1.0,89,0.00,,,0.00,,2013-03-04 12:11:00,
2013-03-04 07:22:00,19.0,16.0,30.17,NNW,329,0.0,0.0,88,0.00,,,0.00,,2013-03-04 12:22:00,
2013-03-04 07:32:00,19.0,16.0,30.18,NNW,329,0.0,0.0,89,0.00,,,0.00,,2013-03-04 12:32:00,
2013-03-04 07:42:00,19.0,16.0,30.18,NNW,329,0.0,0.0,89,0.00,,,0.00,,2013-03-04 12:42:00,
2013-03-04 07:53:00,19.0,17.0,30.18,NNW,329,0.0,0.0,90,0.00,,,0.00,,2013-03-04 12:53:00,
2013-03-04 08:02:00,19.0,17.0,30.18,NNW,329,0.0,0.0,91,0.00,,,0.00,,2013-03-04 13:02:00,
2013-03-04 08:11:00,19.0,17.0,30.18,NNW,329,0.0,0.0,91,0.00,,,0.00,,2013-03-04 13:11:00,
2013-03-04 08:22:00,20.0,18.0,30.19,NNW,329,0.0,0.0,91,0.00,,,0.00,,2013-03-04 13:22:00,
2013-03-04 08:32:00,20.0,18.0,30.20,NNW,329,0.0,0.0,91,0.00,,,0.00,,2013-03-04 13:32:00,
2013-03-04 08:42:00,20.0,18.0,30.20,NNW,329,0.0,0.0,91,0.00,,,0.00,,2013-03-04 13:42:00,
2013-03-04 08:52:00,21.0,19.0,30.19,NNW,329,0.0,0.0,91,0.00,,,0.00,,2013-03-04 13:52:00,
2013-03-04 09:01:00,21.0,19.0,30.19,NNW,329,0.0,0.0,90,0.00,,,0.00,,2013-03-04 14:01:00,
2013-03-04 09:12:00,21.0,19.0,30.19,NNW,329,0.0,0.0,90,0.00,,,0.00,,2013-03-04 14:12:00,
2013-03-04 09:22:00,22.0,19.0,30.19,NNW,329,0.0,0.0,89,0.00,,,0.00,,2013-03-04 14:22:00,
2013-03-04 09:32:00,23.0,19.0,30.19,NNW,329,0.0,0.0,84,0.00,,,0.00,,2013-03-04 14:32:00,
2013-03-04 09:42:00,23.0,19.0,30.19,NNW,329,0.0,0.0,84,0.00,,,0.00,,2013-03-04 14:42:00,
2013-03-04 09:52:00,24.0,18.0,30.19,NNW,329,0.0,0.0,79,0.00,,,0.00,,2013-03-04 14:52:00,
2013-03-04 10:02:00,26.0,20.0,30.19,NNW,329,0.0,0.0,77,0.00,,,0.00,,2013-03-04 15:02:00,
2013-03-04 10:11:00,26.0,20.0,30.19,NNW,329,0.0,0.0,77,0.00,,,0.00,,2013-03-04 15:11:00,
2013-03-04 10:22:00,27.0,19.0,30.19,NNW,329,0.0,2.0,70,0.00,,,0.00,,2013-03-04 15:22:00,
2013-03-04 10:32:00,29.0,19.0,30.19,NNW,329,0.0,1.0,66,0.00,,,0.00,,2013-03-04 15:32:00,
2013-03-04 10:42:00,29.0,19.0,30.19,NNW,329,0.0,1.0,66,0.00,,,0.00,,2013-03-04 15:42:00,
2013-03-04 10:52:00,32.0,18.0,30.18,NNW,329,0.0,3.0,56,0.00,,,0.00,,2013-03-04 15:52:00,
2013-03-04 11:03:00,34.0,17.0,30.19,NNW,329,0.0,3.0,50,0.00,,,0.00,,2013-03-04 16:03:00,
2013-03-04 11:11:00,34.0,17.0,30.19,NNW,329,0.0,3.0,50,0.00,,,0.00,,2013-03-04 16:11:00,
2013-03-04 11:21:00,36.0,17.0,30.19,NNW,340,0.0,4.0,45,0.00,,,0.00,,2013-03-04 16:21:00,
2013-03-04 11:32:00,38.0,18.0,30.19,NW,323,0.0,4.0,43,0.00,,,0.00,,2013-03-04 16:32:00,
2013-03-04 11:42:00,38.0,18.0,30.19,NW,323,0.0,4.0,43,0.00,,,0.00,,2013-03-04 16:42:00,
2013-03-04 11:52:00,39.0,20.0,30.18,NNW,330,0.0,6.0,46,0.00,,,0.00,,2013-03-04 16:52:00,
2013-03-04 12:02:00,40.0,18.0,30.18,NNW,343,0.0,2.0,40,0.00,,,0.00,,2013-03-04 17:02:00,
2013-03-04 12:11:00,40.0,18.0,30.18,NNW,343,0.0,2.0,40,0.00,,,0.00,,2013-03-04 17:11:00,
2013-03-04 12:22:00,41.0,19.0,30.17,East,101,0.0,2.0,41,0.00,,,0.00,,2013-03-04 17:22:00,
2013-03-04 12:32:00,42.0,19.0,30.16,NNW,328,0.0,2.0,39,0.00,,,0.00,,2013-03-04 17:32:00,
2013-03-04 12:42:00,42.0,19.0,30.16,NNW,328,0.0,2.0,39,0.00,,,0.00,,2013-03-04 17:42:00,
2013-03-04 12:52:00,43.0,20.0,30.15,North,355,0.0,3.0,40,0.00,,,0.00,,2013-03-04 17:52:00,
2013-03-04 13:02:00,44.0,22.0,30.14,SSE,157,0.0,2.0,41,0.00,,,0.00,,2013-03-04 18:02:00,
2013-03-04 13:11:00,44.0,22.0,30.14,SSE,157,0.0,2.0,41,0.00,,,0.00,,2013-03-04 18:11:00,
2013-03-04 13:22:00,45.0,23.0,30.14,SW,229,0.0,1.0,42,0.00,,,0.00,,2013-03-04 18:22:00,
2013-03-04 13:32:00,46.0,25.0,30.13,NNW,332,0.0,4.0,43,0.00,,,0.00,,2013-03-04 18:32:00,
2013-03-04 13:42:00,46.0,25.0,30.13,NNW,332,0.0,4.0,43,0.00,,,0.00,,2013-03-04 18:42:00,
2013-03-04 13:52:00,47.0,25.0,30.12,NNW,339,0.0,2.0,42,0.00,,,0.00,,2013-03-04 18:52:00,
2013-03-04 14:02:00,47.0,26.0,30.11,NNW,336,0.0,3.0,43,0.00,,,0.00,,2013-03-04 19:02:00,
2013-03-04 14:12:00,47.0,26.0,30.11,NNW,336,0.0,3.0,43,0.00,,,0.00,,2013-03-04 19:12:00,
2013-03-04 14:22:00,47.0,26.0,30.10,NNW,342,0.0,2.0,43,0.00,,,0.00,,2013-03-04 19:22:00,
2013-03-04 14:32:00,48.0,25.0,30.09,NNW,342,0.0,3.0,41,0.00,,,0.00,,2013-03-04 19:32:00,
2013-03-04 14:42:00,48.0,25.0,30.09,NNW,342,0.0,3.0,41,0.00,,,0.00,,2013-03-04 19:42:00,
2013-03-04 14:52:00,48.0,25.0,30.09,NNW,342,0.0,3.0,41,0.00,,,0.00,,2013-03-04 19:52:00,
2013-03-04 15:02:00,49.0,26.0,30.09,NNW,342,0.0,2.0,41,0.00,,,0.00,,2013-03-04 20:02:00,
2013-03-04 15:11:00,49.0,26.0,30.09,NNW,342,0.0,2.0,41,0.00,,,0.00,,2013-03-04 20:11:00,
2013-03-04 15:22:00,50.0,27.0,30.09,NW,325,0.0,4.0,41,0.00,,,0.00,,2013-03-04 20:22:00,
2013-03-04 15:32:00,50.0,29.0,30.08,NW,325,0.0,3.0,45,0.00,,,0.00,,2013-03-04 20:32:00,
2013-03-04 15:42:00,50.0,29.0,30.08,NW,325,0.0,3.0,45,0.00,,,0.00,,2013-03-04 20:42:00,
2013-03-04 15:53:00,51.0,30.0,30.08,NNW,337,0.0,2.0,44,0.00,,,0.00,,2013-03-04 20:53:00,
2013-03-04 16:02:00,51.0,29.0,30.08,NNW,338,0.0,2.0,43,0.00,,,0.00,,2013-03-04 21:02:00,
2013-03-04 16:12:00,51.0,29.0,30.08,NNW,338,0.0,2.0,43,0.00,,,0.00,,2013-03-04 21:12:00,
2013-03-04 16:22:00,51.0,28.0,30.08,NNW,338,0.0,3.0,41,0.00,,,0.00,,2013-03-04 21:22:00,
2013-03-04 16:32:00,52.0,29.0,30.07,NNW,338,0.0,2.0,41,0.00,,,0.00,,2013-03-04 21:32:00,
2013-03-04 16:42:00,52.0,29.0,30.07,NNW,338,0.0,2.0,41,0.00,,,0.00,,2013-03-04 21:42:00,
2013-03-04 16:53:00,52.0,29.0,30.06,NNW,338,0.0,1.0,41,0.00,,,0.00,,2013-03-04 21:53:00,
2013-03-04 17:02:00,52.0,28.0,30.06,NNW,338,0.0,2.0,40,0.00,,,0.00,,2013-03-04 22:02:00,
2013-03-04 17:12:00,52.0,28.0,30.06,NNW,338,0.0,2.0,40,0.00,,,0.00,,2013-03-04 22:12:00,
2013-03-04 17:22:00,52.0,28.0,30.07,NNW,338,0.0,3.0,39,0.00,,,0.00,,2013-03-04 22:22:00,
2013-03-04 17:32:00,52.0,28.0,30.06,NNW,338,0.0,2.0,39,0.00,,,0.00,,2013-03-04 22:32:00,
2013-03-04 17:42:00,52.0,28.0,30.06,NNW,338,0.0,2.0,39,0.00,,,0.00,,2013-03-04 22:42:00,
2013-03-04 17:52:00,52.0,29.0,30.06,NNW,338,0.0,0.0,41,0.00,,,0.00,,2013-03-04 22:52:00,
2013-03-04 18:02:00,52.0,29.0,30.06,NNW,338,0.0,0.0,41,0.00,,,0.00,,2013-03-04 23:02:00,
2013-03-04 18:11:00,52.0,29.0,30.06,NNW,338,0.0,0.0,41,0.00,,,0.00,,2013-03-04 23:11:00,
2013-03-04 18:22:00,51.0,29.0,30.05,NNW,338,0.0,0.0,43,0.00,,,0.00,,2013-03-04 23:22:00,
2013-03-04 18:32:00,51.0,31.0,30.05,NNW,338,0.0,0.0,46,0.00,,,0.00,,2013-03-04 23:32:00,
2013-03-04 18:42:00,51.0,31.0,30.05,NNW,338,0.0,0.0,46,0.00,,,0.00,,2013-03-04 23:42:00,
2013-03-04 18:52:00,50.0,30.0,30.06,NNW,338,0.0,0.0,46,0.00,,,0.00,,2013-03-04 23:52:00,
2013-03-04 19:02:00,49.0,30.0,30.05,NNW,338,0.0,1.0,47,0.00,,,0.00,,2013-03-05 00:02:00,
2013-03-04 19:12:00,49.0,30.0,30.05,NNW,338,0.0,1.0,47,0.00,,,0.00,,2013-03-05 00:12:00,
2013-03-04 19:22:00,48.0,30.0,30.05,NNW,338,0.0,0.0,49,0.00,,,0.00,,2013-03-05 00:22:00,
2013-03-04 19:32:00,48.0,31.0,30.06,NNW,338,0.0,1.0,51,0.00,,,0.00,,2013-03-05 00:32:00,
2013-03-04 19:42:00,48.0,31.0,30.06,NNW,338,0.0,1.0,51,0.00,,,0.00,,2013-03-05 00:42:00,
2013-03-04 19:51:00,47.0,30.0,30.05,NNW,338,0.0,0.0,51,0.00,,,0.00,,2013-03-05 00:51:00,
2013-03-04 20:02:00,47.0,31.0,30.05,NNW,338,0.0,1.0,53,0.00,,,0.00,,2013-03-05 01:02:00,
2013-03-04 20:12:00,47.0,31.0,30.05,NNW,338,0.0,1.0,53,0.00,,,0.00,,2013-03-05 01:12:00,
2013-03-04 20:22:00,46.0,30.0,30.03,NNW,338,0.0,0.0,53,0.00,,,0.00,,2013-03-05 01:22:00,
2013-03-04 20:33:00,45.0,31.0,30.03,NNW,338,0.0,0.0,57,0.00,,,0.00,,2013-03-05 01:33:00,
2013-03-04 20:42:00,45.0,31.0,30.03,NNW,338,0.0,0.0,57,0.00,,,0.00,,2013-03-05 01:42:00,
2013-03-04 20:52:00,45.0,31.0,30.03,NNW,338,0.0,0.0,57,0.00,,,0.00,,2013-03-05 01:52:00,
2013-03-04 21:02:00,44.0,31.0,30.05,NNW,338,0.0,0.0,59,0.00,,,0.00,,2013-03-05 02:02:00,
2013-03-04 21:11:00,44.0,31.0,30.05,NNW,338,0.0,0.0,59,0.00,,,0.00,,2013-03-05 02:11:00,
2013-03-04 21:22:00,44.0,31.0,30.05,NNW,338,0.0,0.0,59,0.00,,,0.00,,2013-03-05 02:22:00,
2013-03-04 21:32:00,43.0,30.0,30.06,NNW,338,0.0,0.0,59,0.00,,,0.00,,2013-03-05 02:32:00,
2013-03-04 21:42:00,43.0,30.0,30.06,NNW,338,0.0,0.0,59,0.00,,,0.00,,2013-03-05 02:42:00,
2013-03-04 21:52:00,43.0,30.0,30.06,NNW,338,0.0,0.0,59,0.00,,,0.00,,2013-03-05 02:52:00,
2013-03-04 22:02:00,43.0,30.0,30.05,NNW,338,0.0,0.0,61,0.00,,,0.00,,2013-03-05 03:02:00,
2013-03-04 22:12:00,43.0,30.0,30.05,NNW,338,0.0,0.0,61,0.00,,,0.00,,2013-03-05 03:12:00,
2013-03-04 22:22:00,42.0,30.0,30.06,NNW,338,0.0,1.0,63,0.00,,,0.00,,2013-03-05 03:22:00,
2013-03-04 22:32:00,42.0,31.0,30.06,NNW,338,0.0,0.0,65,0.00,,,0.00,,2013-03-05 03:32:00,
2013-03-04 22:42:00,42.0,31.0,30.06,NNW,338,0.0,0.0,65,0.00,,,0.00,,2013-03-05 03:42:00,
2013-03-04 22:52:00,42.0,30.0,30.06,NNW,338,0.0,0.0,62,0.00,,,0.00,,2013-03-05 03:52:00,
2013-03-04 23:02:00,41.0,29.0,30.06,NNW,338,0.0,0.0,62,0.00,,,0.00,,2013-03-05 04:02:00,
2013-03-04 23:12:00,41.0,29.0,30.06,NNW,338,0.0,0.0,62,0.00,,,0.00,,2013-03-05 04:12:00,
2013-03-04 23:22:00,41.0,30.0,30.07,NNW,338,0.0,0.0,64,0.00,,,0.00,,2013-03-05 04:22:00,
2013-03-04 23:32:00,40.0,28.0,30.07,NNW,338,0.0,0.0,63,0.00,,,0.00,,2013-03-05 04:32:00,
2013-03-04 23:42:00,40.0,28.0,30.07,NNW,338,0.0,0.0,63,0.00,,,0.00,,2013-03-05 04:42:00,
2013-03-04 23:52:00,40.0,30.0,30.08,NNW,338,0.0,0.0,67,0.00,,,0.00,,2013-03-05 04:52:00,